Date_and_time,latitude,longitude,wind_speed,RelWindDirFrom,WindDirFrom,air_pressure,air_temperature,relative_humidity,Temp,platform_speed_wrt_ground,air_pressure_at_mean_sea_level,platform_orientation
2018-07-16 23:40,52.4947016666667,-97.3843766666667,21.3,23.6,326,991.29,14.4,74,19.06,11.1,1017.88,338.1
2018-07-16 23:50,52.52132,-97.4087933333333,21.5,24.0,322,991.25,14.4,73,18.72,11.0,1017.84,338.1
2018-07-17 00:00,52.5484716666667,-97.4317533333333,21.6,24.0,324,991.25,14.5,73,18.79,11.0,1017.82,332.4
2018-07-17 00:10,52.5762583333333,-97.4538316666667,21.5,24.5,324,991.23,14.6,72,18.62,11.1,1017.78,332.4
2018-07-17 00:20,52.603545,-97.4765666666667,21.8,24.3,324,991.22,14.6,71,18.26,11.0,1017.78,332.4
2018-07-17 00:30,52.63097,-97.4998866666667,20.8,22.8,324,991.36,14.6,70,18.17,11.1,1017.90,332.4
2018-07-17 00:40,52.6585566666667,-97.5227866666667,20.8,22.5,320,991.47,14.6,69,17.95,11.1,1018.01,332.4
2018-07-17 00:50,52.6859083333333,-97.5465233333333,19.7,21.7,317,991.59,14.8,67,17.78,11.1,1018.13,332.4
2018-07-17 01:00,52.7137483333333,-97.5691066666667,18.3,20.2,320,991.62,15.1,64,17.85,11.2,1018.15,330.0
2018-07-17 01:10,52.74179,-97.5910966666667,17.8,19.1,323,991.52,15.4,61,17.46,11.2,1018.02,330.0
2018-07-17 01:20,52.7714733333333,-97.6051666666667,17.0,19.6,328,991.57,15.6,59,17.70,11.1,1018.06,330.0
2018-07-17 01:30,52.80229,-97.6141566666667,15.2,16.6,332,991.70,15.8,58,18.07,11.3,1018.19,330.0
2018-07-17 01:40,52.8178816666667,-97.6188083333333,7.9,16.1,325,991.93,15.8,58,18.06,5.7,1018.42,330.0
2018-07-17 01:50,52.817875,-97.61895,1.8,3.1,261,992.10,15.4,59,17.69,0.0,1018.62,330.0
2018-07-17 02:00,52.8178766666667,-97.6189783333333,1.6,2.7,252,992.10,15.6,58,17.68,0.0,1018.60,336.1
2018-07-17 02:10,52.81788,-97.6189833333333,1.5,1.8,244,992.07,15.4,61,17.65,0.0,1018.58,336.1
2018-07-17 02:20,52.8178816666667,-97.618965,1.6,1.9,249,992.12,15.1,59,17.64,0.0,1018.64,336.1
2018-07-17 02:30,52.8178783333333,-97.6189616666667,2.1,2.7,248,992.16,15.0,59,17.61,0.0,1018.69,336.1
2018-07-17 02:40,52.81788,-97.61896,3.0,3.9,247,992.26,14.9,60,17.59,0.0,1018.79,336.1
2018-07-17 02:50,52.81788,-97.6189583333333,3.0,5.0,247,992.38,14.7,63,17.58,0.0,1018.90,336.1
2018-07-17 03:00,52.81788,-97.6189616666667,2.8,4.3,248,992.48,14.3,69,17.58,0.0,1019.02,337.2
2018-07-17 03:10,52.81788,-97.6189633333333,3.4,5.1,246,992.56,14.1,72,17.59,0.0,1019.10,337.2
2018-07-17 03:20,52.81788,-97.6189633333333,3.1,5.2,254,992.61,14.1,72,17.62,0.0,1019.14,337.2
2018-07-17 03:30,52.8178816666667,-97.6189633333333,2.8,4.5,257,992.57,13.9,72,17.63,0.0,1019.11,337.2
2018-07-17 03:40,52.8178816666667,-97.618965,2.6,4.2,252,992.62,13.9,72,17.62,0.0,1019.18,337.2
2018-07-17 03:50,52.81788,-97.6189633333333,2.7,4.0,251,992.61,13.8,73,17.60,0.0,1019.16,337.2
2018-07-17 04:00,52.81788,-97.6189633333333,3.0,4.6,244,992.58,13.7,74,17.62,0.0,1019.15,343.9
2018-07-17 04:10,52.81788,-97.6189633333333,3.0,5.8,238,992.53,13.8,73,17.64,0.0,1019.10,343.9
2018-07-17 04:20,52.8178783333333,-97.6189633333333,3.1,5.1,241,992.60,14.0,73,17.65,0.0,1019.17,343.9
2018-07-17 04:30,52.8178783333333,-97.6189633333333,3.1,5.3,233,992.62,13.9,74,17.61,0.0,1019.20,343.9
2018-07-17 04:40,52.8178783333333,-97.6189633333333,3.6,6.2,240,992.65,14.0,73,17.61,0.0,1019.23,343.9
2018-07-17 04:50,52.8178766666667,-97.6189666666667,3.7,5.6,243,992.73,14.1,74,17.61,0.0,1019.33,343.9
2018-07-17 05:00,52.8178783333333,-97.6189716666667,3.4,5.2,241,992.74,14.1,75,17.62,0.0,1019.35,90.0
2018-07-17 05:10,52.8178783333333,-97.61897,3.8,5.5,239,992.73,14.3,74,17.59,0.0,1019.33,90.0
2018-07-17 05:20,52.8178766666667,-97.6189666666667,4.8,7.7,213,992.74,14.3,74,17.58,0.0,1019.35,90.0
2018-07-17 05:30,52.8178683333333,-97.6189616666667,5.3,7.7,212,992.82,14.4,71,17.58,0.0,1019.43,90.0
2018-07-17 05:40,52.8178716666667,-97.6189566666667,5.6,7.7,211,992.89,14.3,72,17.59,0.0,1019.51,90.0
2018-07-17 05:50,52.8178733333333,-97.6189583333333,7.4,9.8,208,992.91,14.7,71,17.58,0.0,1019.52,90.0
2018-07-17 06:00,52.8178733333333,-97.6189583333333,8.6,10.9,211,992.95,14.9,72,17.57,0.0,1019.54,90.0
2018-07-17 06:10,52.8178766666667,-97.61896,8.3,10.5,213,992.97,14.9,73,17.56,0.0,1019.55,90.0
2018-07-17 06:20,52.817875,-97.61896,9.0,11.8,216,992.98,14.8,73,17.55,0.0,1019.57,90.0
2018-07-17 06:30,52.817875,-97.61896,9.5,12.1,215,992.97,14.8,73,17.54,0.0,1019.56,90.0
2018-07-17 06:40,52.817875,-97.61896,10.4,12.3,214,992.96,14.9,72,17.54,0.0,1019.54,90.0
2018-07-17 06:50,52.8178733333333,-97.6189616666667,9.3,11.6,215,992.89,14.8,72,17.54,0.0,1019.47,90.0
2018-07-17 07:00,52.8178733333333,-97.6189616666667,9.7,11.6,213,992.76,14.7,76,17.49,0.0,1019.33,90.0
2018-07-17 07:10,52.8178733333333,-97.6189616666667,9.3,10.7,213,992.70,14.6,75,17.46,0.0,1019.27,90.0
2018-07-17 07:20,52.8178733333333,-97.6189616666667,9.5,11.2,213,992.80,14.6,76,17.45,0.0,1019.37,90.0
2018-07-17 07:30,52.8178733333333,-97.6189616666667,9.5,11.2,212,992.72,14.6,74,17.42,0.0,1019.30,90.0
2018-07-17 07:40,52.81787,-97.6189516666667,9.3,10.7,208,992.56,14.7,72,17.38,0.0,1019.11,90.0
2018-07-17 07:50,52.8178716666667,-97.6189616666667,9.8,11.2,208,992.65,14.8,72,17.35,0.0,1019.19,90.0
2018-07-17 08:00,52.8178716666667,-97.6189633333333,10.2,11.6,208,992.68,14.8,72,17.33,0.0,1019.22,135.1
2018-07-17 08:10,52.8178716666667,-97.6189633333333,10.3,11.4,207,992.77,14.8,72,17.31,0.0,1019.31,135.1
2018-07-17 08:20,52.8178716666667,-97.618965,9.9,11.5,211,992.82,14.8,72,17.30,0.0,1019.36,135.1
2018-07-17 08:30,52.8178733333333,-97.618965,10.2,12.0,204,992.84,14.8,72,17.31,0.0,1019.39,135.1
2018-07-17 08:40,52.8178733333333,-97.618965,10.3,11.9,206,992.81,14.8,72,17.31,0.0,1019.36,135.1
2018-07-17 08:50,52.8178366666667,-97.6189616666667,11.0,12.4,204,992.81,14.8,72,17.30,0.0,1019.37,135.1
2018-07-17 09:00,52.8178816666667,-97.6189566666667,11.2,12.4,206,992.86,14.8,72,17.28,0.0,1019.42,360.0
2018-07-17 09:10,52.8178783333333,-97.6189516666667,12.0,13.5,213,992.92,14.8,75,17.26,0.0,1019.48,360.0
2018-07-17 09:20,52.8178783333333,-97.6189533333333,12.1,13.7,208,992.79,14.7,78,17.24,0.0,1019.35,360.0
2018-07-17 09:30,52.8178783333333,-97.6189566666667,11.7,13.1,209,992.75,14.6,79,17.22,0.0,1019.31,360.0
2018-07-17 09:40,52.81788,-97.6189566666667,11.6,13.5,209,992.88,14.7,80,17.20,0.0,1019.44,360.0
2018-07-17 09:50,52.81788,-97.618955,12.7,14.2,208,992.87,14.7,79,17.20,0.0,1019.43,360.0
2018-07-17 10:00,52.8178766666667,-97.6189583333333,12.0,13.4,205,992.72,14.7,79,17.20,0.0,1019.27,90.0
2018-07-17 10:10,52.8178816666667,-97.6189633333333,11.9,13.3,202,992.63,14.7,82,17.18,0.0,1019.17,90.0
2018-07-17 10:20,52.81788,-97.6189633333333,12.5,13.7,203,992.72,14.7,83,17.16,0.0,1019.28,90.0
2018-07-17 10:30,52.8178816666667,-97.6189666666667,12.9,14.4,202,992.88,14.7,82,17.15,0.0,1019.43,90.0
2018-07-17 10:40,52.8178733333333,-97.618975,12.5,14.5,204,992.89,14.8,83,17.13,0.0,1019.44,90.0
2018-07-17 10:50,52.8178833333333,-97.618975,12.6,13.9,205,992.89,14.8,83,17.12,0.0,1019.45,90.0
2018-07-17 11:00,52.8178816666667,-97.6189716666667,12.1,14.0,205,992.93,14.8,83,17.11,0.0,1019.49,360.0
2018-07-17 11:10,52.8178816666667,-97.6189666666667,12.3,13.9,209,992.98,14.8,83,17.10,0.0,1019.53,360.0
2018-07-17 11:20,52.8139066666667,-97.6175966666667,13.4,18.2,214,992.78,15.0,81,17.07,1.5,1019.32,360.0
2018-07-17 11:30,52.8010183333333,-97.579635,16.2,18.6,189,992.65,15.3,81,17.53,9.5,1019.17,360.0
2018-07-17 11:40,52.795825,-97.561885,14.2,18.4,205,992.74,15.3,83,17.86,4.3,1019.27,360.0
2018-07-17 11:50,52.795845,-97.5619083333333,13.3,14.9,211,992.72,15.1,83,17.92,0.0,1019.25,360.0
2018-07-17 12:00,52.7958266666667,-97.5618683333333,13.4,15.5,213,992.74,15.2,81,17.96,0.0,1019.27,122.6
2018-07-17 12:10,52.7956833333333,-97.5621816666667,13.8,15.8,216,992.63,15.5,79,17.97,0.1,1019.15,122.6
2018-07-17 12:20,52.815785,-97.57893,12.2,19.6,242,992.87,15.5,78,17.99,8.1,1019.39,122.6
2018-07-17 12:30,52.8446883333333,-97.596825,11.4,13.9,253,992.90,15.4,76,17.74,11.1,1019.42,122.6
2018-07-17 12:40,52.8734933333333,-97.6161033333333,11.3,14.1,255,992.89,15.3,70,17.45,11.2,1019.42,122.6
2018-07-17 12:50,52.90249,-97.6346366666667,11.9,15.0,256,993.07,15.2,66,17.84,11.2,1019.61,122.6
2018-07-17 13:00,52.9315516666667,-97.65287,11.9,14.9,257,993.09,15.4,70,18.05,11.2,1019.61,349.8
2018-07-17 13:10,52.9607916666667,-97.66986,11.2,14.0,256,993.03,15.3,70,17.78,11.2,1019.55,349.8
2018-07-17 13:20,52.9891083333333,-97.69075,11.2,13.8,253,992.90,15.3,70,17.38,11.2,1019.40,349.8
2018-07-17 13:30,53.0193516666667,-97.69846,8.4,14.3,254,992.77,15.3,72,17.58,11.0,1019.27,349.8
2018-07-17 13:40,53.02536,-97.697705,12.7,16.3,219,992.49,15.9,72,18.27,2.2,1018.96,349.8
2018-07-17 13:50,53.02541,-97.6977716666667,14.5,16.3,214,992.25,15.8,73,18.41,0.0,1018.72,349.8
2018-07-17 14:00,53.0253316666667,-97.6976083333333,14.3,16.6,218,992.25,15.8,75,18.45,0.0,1018.71,347.2
2018-07-17 14:10,53.023965,-97.696895,15.3,18.3,219,992.22,15.8,76,18.47,0.5,1018.67,347.2
2018-07-17 14:20,53.0249016666667,-97.7128916666667,16.0,18.7,214,992.45,15.6,78,18.37,3.5,1018.92,347.2
2018-07-17 14:30,53.026265,-97.7115966666667,14.0,17.0,216,992.49,15.7,80,17.88,0.6,1018.96,347.2
2018-07-17 14:40,53.03203,-97.7132316666667,12.6,15.0,216,992.68,15.5,81,17.81,2.1,1019.18,347.2
2018-07-17 14:50,53.056305,-97.7354483333333,13.4,19.7,246,992.95,15.2,83,17.52,10.0,1019.46,347.2
2018-07-17 15:00,53.0840133333333,-97.7585883333333,13.1,16.4,250,992.92,15.1,84,17.01,11.2,1019.43,337.7
2018-07-17 15:10,53.1112733333333,-97.78284,12.9,15.8,248,992.84,15.1,85,16.47,11.1,1019.36,337.7
2018-07-17 15:20,53.138555,-97.80689,12.4,15.2,247,992.70,15.1,84,16.44,11.1,1019.20,337.7
2018-07-17 15:30,53.1657983333333,-97.8312433333333,12.6,15.0,246,992.61,15.2,83,16.54,11.1,1019.08,337.7
2018-07-17 15:40,53.1710966666667,-97.83735,14.2,17.1,215,992.03,15.5,82,16.52,2.3,1018.48,337.7
2018-07-17 15:50,53.1710716666667,-97.8372433333333,15.3,17.6,209,991.78,15.6,82,16.49,0.0,1018.22,337.7
2018-07-17 16:00,53.17115,-97.8373083333333,15.7,17.9,206,991.76,15.6,83,16.49,0.0,1018.19,335.2
2018-07-17 16:10,53.1720966666667,-97.8413783333333,14.9,17.6,203,991.87,15.6,85,16.49,0.9,1018.32,335.2
2018-07-17 16:20,53.18968,-97.88171,15.3,18.9,233,992.36,15.5,86,16.46,10.8,1018.82,335.2
2018-07-17 16:30,53.2065466666667,-97.9243533333333,16.2,18.5,231,992.19,15.6,85,16.59,11.0,1018.65,335.2
2018-07-17 16:40,53.22328,-97.96717,15.4,18.8,229,991.99,15.6,84,16.77,11.0,1018.46,335.2
2018-07-17 16:50,53.2405416666667,-98.00975,14.5,17.2,230,991.82,15.7,85,16.48,11.1,1018.28,335.2
2018-07-17 17:00,53.257795,-98.0521116666667,14.4,17.0,228,991.67,15.8,85,16.35,11.0,1018.13,317.7
2018-07-17 17:10,53.2740766666667,-98.0957383333333,14.5,17.8,224,991.55,15.9,85,16.54,11.1,1017.99,317.7
2018-07-17 17:20,53.2896816666667,-98.1401516666667,14.2,16.7,223,991.40,16.1,85,16.53,11.1,1017.83,317.7
2018-07-17 17:30,53.3055583333333,-98.1843416666667,13.7,16.8,222,991.22,16.2,84,16.29,11.1,1017.62,317.7
2018-07-17 17:40,53.3210116666667,-98.2291016666667,12.9,15.3,220,990.97,16.2,84,15.99,11.1,1017.36,317.7
2018-07-17 17:50,53.3362033333333,-98.2742366666667,12.5,15.7,215,990.72,16.2,85,15.79,11.1,1017.11,317.7
2018-07-17 18:00,53.3516416666667,-98.3195166666667,11.8,14.4,213,990.54,16.1,87,15.55,11.2,1016.93,308.8
2018-07-17 18:10,53.367215,-98.36467,10.6,13.4,213,990.33,16.0,89,15.41,11.2,1016.72,308.8
2018-07-17 18:20,53.3749383333333,-98.38737,12.6,18.9,188,989.98,16.2,87,15.25,5.6,1016.35,308.8
2018-07-17 18:30,53.37484,-98.3859333333333,15.0,18.7,178,989.66,16.3,88,15.19,0.3,1016.01,308.8
2018-07-17 18:40,53.3748633333333,-98.3859316666667,13.7,16.1,171,989.48,16.3,88,15.16,0.0,1015.83,308.8
2018-07-17 18:50,53.37489,-98.3858316666667,14.4,16.0,166,989.36,16.3,88,15.19,0.0,1015.70,308.8
2018-07-17 19:00,53.37485,-98.3859816666667,14.8,16.6,167,989.27,16.4,87,15.23,0.0,1015.60,302.1
2018-07-17 19:10,53.3748716666667,-98.3858666666667,15.1,17.0,167,989.15,16.5,87,15.23,0.0,1015.47,302.1
2018-07-17 19:20,53.3748633333333,-98.3858966666667,15.8,17.6,167,989.02,16.5,86,15.24,0.0,1015.33,302.1
2018-07-17 19:30,53.3735783333333,-98.395045,16.4,22.2,173,988.96,16.6,86,15.24,2.0,1015.26,302.1
2018-07-17 19:40,53.379635,-98.4453766666667,13.9,16.2,206,989.40,16.5,85,15.18,11.0,1015.71,302.1
2018-07-17 19:50,53.38289,-98.4838416666667,13.8,19.7,191,989.14,16.7,84,15.18,8.3,1015.44,302.1
2018-07-17 20:00,53.3831666666667,-98.48338,16.0,19.6,164,988.55,16.8,84,15.19,0.1,1014.83,296.1
2018-07-17 20:10,53.3870416666667,-98.4816533333333,15.6,18.6,161,988.70,17.0,84,15.20,1.4,1014.97,296.1
2018-07-17 20:20,53.39404,-98.4691116666667,15.6,19.2,153,988.51,17.0,84,15.23,3.7,1014.77,296.1
2018-07-17 20:30,53.3937666666667,-98.4697366666667,15.9,18.5,163,988.27,16.9,84,15.23,0.2,1014.53,296.1
2018-07-17 20:40,53.3933166666667,-98.4695983333333,16.1,20.0,165,988.18,16.9,85,15.25,0.2,1014.43,296.1
2018-07-17 20:50,53.3889483333333,-98.4661366666667,18.2,20.1,167,987.86,16.8,86,15.25,1.7,1014.11,296.1
2018-07-17 21:00,53.3852333333333,-98.46267,17.5,19.3,169,987.86,16.9,85,15.26,1.5,1014.10,291.5
2018-07-17 21:10,53.3872416666667,-98.4612083333333,15.2,17.9,173,988.10,17.1,84,15.23,0.8,1014.34,291.5
2018-07-17 21:20,53.3948483333333,-98.4510583333333,13.9,17.7,154,988.08,17.2,83,15.25,3.5,1014.31,291.5
2018-07-17 21:30,53.4145683333333,-98.4115733333333,14.8,17.8,123,987.87,17.2,85,15.27,11.1,1014.09,291.5
2018-07-17 21:40,53.43402,-98.3716166666667,14.7,17.9,127,987.85,17.2,86,15.37,11.1,1014.07,291.5
2018-07-17 21:50,53.451735,-98.3296533333333,15.2,17.9,129,987.75,17.2,87,15.57,11.0,1013.95,291.5
2018-07-17 22:00,53.4693666666667,-98.287215,15.9,18.9,131,987.62,17.4,86,15.93,11.1,1013.80,31.9
2018-07-17 22:10,53.4880533333333,-98.24633,15.8,19.5,132,987.53,17.6,85,16.20,11.0,1013.71,31.9
2018-07-17 22:20,53.5075383333333,-98.2061583333333,16.4,19.9,133,987.31,17.8,84,16.41,11.1,1013.48,31.9
2018-07-17 22:30,53.5021183333333,-98.2130166666667,19.3,28.6,167,986.59,17.8,83,16.53,2.4,1012.74,31.9
2018-07-17 22:40,53.4797666666667,-98.2405416666667,24.4,27.4,174,986.09,17.7,84,16.55,10.0,1012.23,31.9
2018-07-17 22:50,53.4542583333333,-98.26574,25.2,28.2,175,985.87,17.6,84,16.46,10.7,1012.00,31.9
2018-07-17 23:00,53.4285533333333,-98.290265,25.0,27.4,174,985.76,17.6,85,16.25,10.6,1011.89,68.4
2018-07-17 23:10,53.4022583333333,-98.3135516666667,24.4,26.1,176,985.79,17.5,86,15.98,10.7,1011.91,68.4
2018-07-17 23:20,53.3757016666667,-98.3363033333333,24.5,26.2,176,985.71,17.6,85,15.76,10.7,1011.83,68.4
2018-07-17 23:30,53.3490633333333,-98.3586666666667,23.7,26.8,179,985.71,17.7,85,15.56,10.7,1011.82,68.4
2018-07-17 23:40,53.322065,-98.37994,22.8,24.8,181,985.71,17.8,85,15.39,10.7,1011.81,68.4
2018-07-17 23:50,53.295075,-98.4016033333333,22.0,23.6,181,985.71,18.0,84,15.36,10.8,1011.80,68.4
